Date String (YYYY-MM-DD hh:mm:ss) UTC,Instrument flags,absolute air pressure of the measurement (hPa),sample flow rate (lpm),inlet stack bypass flow (lpm),air temperature of the measurement (°C),ambient temperature measured by the external sensor (°C),aerosol sample conditioner tube jacket temperature (°C),OPC LED temperature (°C),internal box temperature (°C),relative humidity of the measurement (%),span deviation,mass concentration of particles derived from Lorenz-Mie calculation of OPC scattering (μg/m³),mass concentration of particles derived from Lorenz-Mie calculation of OPC scattering (μg/m³),mass concentration of particles derived from Lorenz-Mie calculation of OPC scattering (μg/m³)
DateTimeUTC,F1_M11,P_M11,Q1_M11,Q2_M11,T1_M11,T2_M11,T3_M11,T4_M11,T5_M11,U1_M11,ZSPAN_M11,X0_M11,X2_M11,X1_M11
2024-02-23 14:00:00,SystemResetWarning,0832.5,5.00,000.00,018.8,018.5,000.0,027.0,020.5,10.7,0000.0,0001.17,0000.65,0000.49
2024-02-23 14:01:00,SystemResetWarning,0832.6,5.00,000.00,018.7,018.4,000.0,027.0,020.5,10.6,0000.0,0001.16,0000.64,0000.48
2024-02-23 14:02:00,SystemResetWarning,0832.5,5.00,000.00,018.7,018.3,000.0,027.0,020.5,10.7,0000.0,0001.16,0000.65,0000.48
2024-02-23 14:03:00,SystemResetWarning,0832.5,5.00,000.00,018.7,018.3,000.0,027.0,020.4,10.7,0000.0,0001.19,0000.66,0000.48
2024-02-23 14:04:00,SystemResetWarning,0832.5,5.00,000.00,018.7,018.2,000.0,027.0,020.4,10.4,0000.0,0001.17,0000.64,0000.48
2024-02-23 14:05:00,SystemResetWarning,0832.5,4.99,000.00,018.7,018.2,000.0,027.0,020.3,10.4,0000.0,0001.10,0000.63,0000.48
2024-02-23 14:06:00,SystemResetWarning,0832.6,5.00,000.00,018.7,018.1,000.0,027.0,020.3,10.6,0000.0,0001.05,0000.63,0000.49
2024-02-23 14:07:00,SystemResetWarning,0832.5,5.01,000.00,018.6,018.1,000.0,027.0,020.3,10.8,0000.0,0000.99,0000.60,0000.48
2024-02-23 14:08:00,SystemResetWarning,0832.5,5.00,000.00,018.6,018.1,000.0,027.0,020.2,10.9,0000.0,0000.83,0000.55,0000.47
2024-02-23 14:09:00,SystemResetWarning,0832.5,5.00,000.00,018.6,018.1,000.0,027.0,020.2,11.0,0000.0,0000.75,0000.52,0000.46
2024-02-23 14:10:00,SystemResetWarning,0832.5,5.00,000.00,018.6,018.0,000.0,027.0,020.2,11.0,0000.0,0000.70,0000.50,0000.46
2024-02-23 14:11:00,SystemResetWarning,0832.6,5.00,000.00,018.5,018.0,000.0,026.9,020.2,10.8,0000.0,0000.68,0000.49,0000.45
2024-02-23 14:12:00,SystemResetWarning,0832.7,5.00,000.00,018.5,018.0,000.0,026.9,020.1,10.8,0000.0,0000.71,0000.49,0000.45
2024-02-23 14:13:00,SystemResetWarning,0832.7,5.00,000.00,018.5,017.9,000.0,026.9,020.2,11.0,0000.0,0000.75,0000.51,0000.45
2024-02-23 14:14:00,SystemResetWarning,0832.7,5.01,000.00,018.5,017.9,000.0,026.9,020.1,11.1,0000.0,0000.75,0000.51,0000.45
2024-02-23 14:15:00,SystemResetWarning,0832.6,5.01,000.00,018.5,017.9,000.0,026.9,020.1,11.1,0000.0,0000.78,0000.52,0000.45
2024-02-23 14:16:00,SystemResetWarning,0832.6,4.99,000.00,018.5,017.9,000.0,026.9,020.1,10.8,0000.0,0000.77,0000.51,0000.44
2024-02-23 14:17:00,SystemResetWarning,0832.6,4.99,000.00,018.5,017.9,000.0,026.9,020.1,10.9,0000.0,0000.76,0000.50,0000.44
2024-02-23 14:18:00,SystemResetWarning,0832.6,5.00,000.00,018.4,017.9,000.0,026.9,020.1,10.7,0000.0,0000.77,0000.51,0000.44
2024-02-23 14:19:00,SystemResetWarning,0832.6,5.00,000.00,018.4,017.9,000.0,026.9,020.1,10.8,0000.0,0000.80,0000.53,0000.44
2024-02-23 14:20:00,SystemResetWarning,0832.6,5.00,000.00,018.4,017.9,000.0,026.9,020.0,10.7,0000.0,0000.82,0000.53,0000.44
2024-02-23 14:21:00,SystemResetWarning,0832.7,5.00,000.00,018.4,017.9,000.0,026.8,020.0,10.9,0000.0,0000.88,0000.56,0000.44
2024-02-23 14:22:00,SystemResetWarning,0832.6,5.00,000.00,018.4,017.8,000.0,026.9,020.0,11.0,0000.0,0000.96,0000.60,0000.44
2024-02-23 14:23:00,SystemResetWarning,0832.7,5.00,000.00,018.4,017.8,000.0,026.9,020.0,11.2,0000.0,0001.89,0000.61,0000.43
2024-02-23 14:24:00,SystemResetWarning,0832.7,5.00,000.00,018.4,017.8,000.0,026.8,020.0,10.8,0000.0,0002.80,0000.62,0000.43
2024-02-23 14:25:00,SystemResetWarning,0832.7,5.00,000.00,018.4,017.8,000.0,026.8,020.0,10.9,0000.0,0002.83,0000.64,0000.43
2024-02-23 14:26:00,SystemResetWarning,0832.8,4.99,000.00,018.4,017.8,000.0,026.8,020.0,11.0,0000.0,0002.79,0000.62,0000.43
2024-02-23 14:27:00,SystemResetWarning,0832.8,5.00,000.00,018.4,017.8,000.0,026.8,020.0,11.2,0000.0,0002.81,0000.63,0000.43
2024-02-23 14:28:00,SystemResetWarning,0832.8,5.01,000.00,018.4,017.8,000.0,026.8,020.0,11.5,0000.0,0002.83,0000.65,0000.43
2024-02-23 14:29:00,SystemResetWarning,0832.8,5.01,000.00,018.4,017.8,000.0,026.8,020.1,11.4,0000.0,0002.80,0000.63,0000.42
2024-02-23 14:30:00,SystemResetWarning,0832.9,5.00,000.00,018.4,017.8,000.0,026.8,020.1,11.4,0000.0,0002.77,0000.61,0000.42
2024-02-23 14:31:00,SystemResetWarning,0832.7,5.00,000.00,018.4,017.8,000.0,026.8,020.0,11.5,0000.0,0002.74,0000.59,0000.41
2024-02-23 14:32:00,SystemResetWarning,0833.0,4.99,000.00,018.4,017.8,000.0,026.8,020.0,11.2,0000.0,0002.69,0000.58,0000.41
2024-02-23 14:33:00,SystemResetWarning,0833.0,4.99,000.00,018.4,017.8,000.0,026.8,020.0,11.5,0000.0,0002.61,0000.54,0000.39
2024-02-23 14:34:00,SystemResetWarning,0833.3,5.00,000.00,018.4,017.8,000.0,026.8,020.0,11.4,0000.0,0001.98,0000.52,0000.40
2024-02-23 14:35:00,SystemResetWarning,0833.1,5.00,000.00,018.4,017.8,000.0,026.8,020.0,11.4,0000.0,0000.78,0000.52,0000.40
2024-02-23 14:36:00,SystemResetWarning,0832.9,5.02,000.00,018.4,017.8,000.0,026.8,020.0,11.4,0000.0,0000.75,0000.50,0000.39
2024-02-23 14:37:00,SystemResetWarning,0833.0,4.99,000.00,018.4,017.8,000.0,026.8,020.0,11.6,0000.0,0000.79,0000.51,0000.39
2024-02-23 14:38:00,SystemResetWarning,0832.9,4.99,000.00,018.4,017.8,000.0,026.8,020.0,11.3,0000.0,0000.79,0000.51,0000.39
2024-02-23 14:39:00,SystemResetWarning,0832.9,4.99,000.00,018.4,017.8,000.0,026.8,020.0,11.1,0000.0,0000.79,0000.50,0000.39
2024-02-23 14:40:00,SystemResetWarning,0833.0,5.02,000.00,018.4,017.8,000.0,026.8,020.0,11.2,0000.0,0000.79,0000.50,0000.39
2024-02-23 14:41:00,SystemResetWarning,0833.0,5.01,000.00,018.4,017.8,000.0,026.8,020.0,11.4,0000.0,0000.84,0000.51,0000.39
2024-02-23 14:42:00,SystemResetWarning,0833.1,4.99,000.00,018.4,017.8,000.0,026.8,020.0,11.5,0000.0,0000.87,0000.52,0000.39
2024-02-23 14:43:00,SystemResetWarning,0833.1,4.99,000.00,018.4,017.8,000.0,026.8,020.0,11.6,0000.0,0000.91,0000.54,0000.40
2024-02-23 14:44:00,SystemResetWarning,0832.9,5.01,000.00,018.4,017.8,000.0,026.8,020.0,11.3,0000.0,0000.91,0000.54,0000.41
2024-02-23 14:45:00,SystemResetWarning,0833.0,5.01,000.00,018.4,017.8,000.0,026.8,020.0,10.9,0000.0,0000.85,0000.52,0000.40
2024-02-23 14:46:00,SystemResetWarning,0833.3,4.99,000.00,018.4,017.8,000.0,026.8,020.0,11.0,0000.0,0000.80,0000.50,0000.40
2024-02-23 14:47:00,SystemResetWarning,0833.0,4.99,000.00,018.4,017.8,000.0,026.8,020.0,10.9,0000.0,0000.76,0000.49,0000.40
2024-02-23 14:48:00,SystemResetWarning,0832.9,5.02,000.00,018.4,017.8,000.0,026.8,020.0,10.9,0000.0,0000.75,0000.49,0000.41
2024-02-23 14:49:00,SystemResetWarning,0832.9,4.99,000.00,018.4,017.8,000.0,026.8,020.0,11.2,0000.0,0000.77,0000.50,0000.41
2024-02-23 14:50:00,SystemResetWarning,0832.9,4.99,000.00,018.4,017.8,000.0,026.8,020.0,10.7,0000.0,0000.78,0000.50,0000.41
2024-02-23 14:51:00,SystemResetWarning,0833.0,5.00,000.00,018.4,017.8,000.0,026.8,020.0,10.8,0000.0,0001.01,0000.51,0000.42
2024-02-23 14:52:00,SystemResetWarning,0833.4,5.02,000.00,018.4,017.8,000.0,026.8,020.0,11.3,0000.0,0000.99,0000.50,0000.42
2024-02-23 14:53:00,SystemResetWarning,0833.1,5.00,000.00,018.4,017.8,000.0,026.8,020.0,11.6,0000.0,0000.98,0000.50,0000.43
2024-02-23 14:54:00,SystemResetWarning,0832.8,4.98,000.00,018.4,017.8,000.0,026.8,020.0,11.6,0000.0,0000.95,0000.50,0000.42
2024-02-23 14:55:00,SystemResetWarning,0832.9,5.01,000.00,018.4,017.8,000.0,026.8,020.0,11.3,0000.0,0000.98,0000.51,0000.43
2024-02-23 14:56:00,SystemResetWarning,0832.8,5.00,000.00,018.4,017.8,000.0,026.8,020.0,10.9,0000.0,0001.02,0000.53,0000.43
2024-02-23 14:57:00,SystemResetWarning,0832.8,5.00,000.00,018.4,017.8,000.0,026.8,020.0,11.2,0000.0,0001.02,0000.53,0000.43
2024-02-23 14:58:00,SystemResetWarning,0833.2,5.01,000.00,018.4,017.8,000.0,026.8,020.0,11.0,0000.0,0001.02,0000.52,0000.42
2024-02-23 14:59:00,SystemResetWarning,0833.1,5.01,000.00,018.4,017.8,000.0,026.8,020.0,11.2,0000.0,0000.99,0000.51,0000.41
